This is the latest recevied weather packets stored in our database for station/object WA4TPR. If no packets are shown the sender has not sent any weather packets the latest 10 day(s).
| Time | Temp. | Humidity | Pressure | Rain* | Wind** | Luminosity | Snow |
|---|---|---|---|---|---|---|---|
| 1777330214 | 26.67° C | 74% | 1019.3 hPa | 0 mm | - | 124 W/m² | - |
| 1777329912 | 26.67° C | 74% | 1019.4 hPa | 0 mm | - | 137 W/m² | - |
| 1777329610 | 26.67° C | 74% | 1019.4 hPa | 0 mm | - | 158 W/m² | - |
| 1777329308 | 26.67° C | 75% | 1019.2 hPa | 0 mm | - | 85 W/m² | - |
| 1777329005 | 26.67° C | 74% | 1019.1 hPa | 0 mm | - | 72 W/m² | - |
| 1777328703 | 26.67° C | 73% | 1019.4 hPa | 0 mm | - | 197 W/m² | - |
| 1777328400 | 26.67° C | 74% | 1019.1 hPa | 0 mm | - | 88 W/m² | - |
| 1777328099 | 26.67° C | 74% | 1019 hPa | 0 mm | - | 84 W/m² | - |
| 1777327797 | 27.22° C | 73% | 1019 hPa | 0 mm | - | 90 W/m² | - |
| 1777327494 | 27.22° C | 72% | 1019 hPa | 0 mm | - | 278 W/m² | - |
| 1777327191 | 27.22° C | 72% | 1018.9 hPa | 0 mm | - | 299 W/m² | - |
| 1777326889 | 27.78° C | 72% | 1019.2 hPa | 0 mm | - | 187 W/m² | - |
| 1777326585 | 27.78° C | 72% | 1019 hPa | 0 mm | - | 349 W/m² | - |
| 1777326283 | 27.78° C | 72% | 1019 hPa | 0 mm | - | 371 W/m² | - |
| 1777325980 | 27.78° C | 72% | 1019 hPa | 0 mm | - | 368 W/m² | - |
| 1777325678 | 27.78° C | 71% | 1019 hPa | 0 mm | - | 437 W/m² | - |
| 1777325376 | 27.78° C | 70% | 1019 hPa | 0 mm | - | 294 W/m² | - |
| 1777325073 | 27.78° C | 70% | 1019 hPa | 0 mm | - | 420 W/m² | - |
| 1777324770 | 27.78° C | 72% | 1019 hPa | 0 mm | - | 436 W/m² | - |
| 1777324468 | 27.78° C | 70% | 1018.6 hPa | 0 mm | - | 457 W/m² | - |
| 1777324165 | 27.78° C | 71% | 1018.9 hPa | 0 mm | - | 465 W/m² | - |
| 1777323863 | 27.78° C | 70% | 1018.8 hPa | 0 mm | - | 477 W/m² | - |
| 1777323559 | 27.78° C | 70% | 1019 hPa | 0 mm | - | 498 W/m² | - |
| 1777323256 | 28.33° C | 71% | 1018.6 hPa | 0 mm | - | 337 W/m² | - |
| 1777322954 | 27.78° C | 71% | 1018.6 hPa | 0 mm | - | 532 W/m² | - |
* Rain latest hour (hover to see other rain measurements)
** Current wind speed in m/s (hover to see current wind gust speed)